Página principal
METAR-TAF:

METAR-TAF

Aeroportos :

Kalaleh, Irão

latitude: 37-22-60N, longitude: 55-27-07E, altura: 130 m

Observação actual do tempo

O boletim foi feito há 42 minutos, às 06:00 UTC
Vento calmo
Temperatura 7°C
Humidade 70%
Pressão 1013 hPa
Visibilidade 10 km ou mais
Poucas nuvensa uma altura de 3000 ft

METAR: OINE 230600Z 00000KT 9999 FEW030 07/02 Q1013

Hora: 10:12 (06:42 UTC)


TAF: em falta

Observações e previsões do tempo de mais de 4000 aeroportos (mensagens METAR e TAF).

As estações disponíveis são os pontos amarelos e vermelhos sobre o mapa.

Mova o rato sobre o mapa para ver o nome da estação.

Depois clique no ponto para visualizar as observações e previsões meteorológicas.

Para alterar o mapa : clique nos botões verdes com uma cruz preta para aumentar o zoom; no botão verde com uma pitada de zoom; ou nas setas verdes para mapas adjacentes.


METAR-TAF: